Showing default

MIRATA, 43015

Orbit data source: Space-Track

MIRATA, 43015 is an American payload satellite in SSO that was launched on Sat, 18 Nov 2017 UTC via a DELTA 7920-10C launch vehicle from the Air Force Western Test Range (AFWTR). Payload-class satellites include a variety of spacecraft equipped with specific instruments for various scientific and technological missions. These include communications satellites like Starlink; space stations such as the ISS; scientific satellites like the Hubble; Earth observation satellites from companies like Planet Labs, Umbra, and HawkEye 360; GPS; miniature CubeSats for education and research; and military/defense satellites.

Loading next visibility...
Identifier
43015, 2017-073C
Orbit
SSO
Country
Flag of USUS
Related business
Manufacturer
MIT
Mission
Operational Amateur Technology
Bus & Motor
CUBESAT 3U, Unknown motor
Mass
4 kg wet, 4 kg dry
Launch date (UTC)
2017-11-18 (8 years ago)
Launch vehicle
DELTA 7920-10C
Launch site
Air Force Western Test Range (AFWTR)
Object type
Payload
Rocket body
Debris
Shape & HBR
Box + 2 Pan, 0.1 m
Radar Cross Section
0.035 m², Small (<0.1 m²)

Expand to show TLE details & history
Last TLE update: 18 hours ago

TLE from 18 hours ago
0 MIRATA
1 43015U 17073C   25243.18900916  .00167206  00000-0  16856-2 0  9991
2 43015  97.5215 142.3671 0062348 139.2804 221.3139 15.62383747423644
Epoch: 2025-08-31T04:32Z
TLE epoch observation values (Epoch: 2025-08-31T04:32:10.391Z)
Latitude
-0.00007°
Longitude
94.71129°
Altitude
415.691 km
Speed
7.644 km/s
True Right ascension
09h 29m 28s
True Declination
0° 00' 00"
Sunlit
Object was in daylight at epoch
Visualization orbit readout
Latitude
Unknown
Longitude
Unknown
Altitude
Unknown
Speed
Unknown
Apparent Right ascension
Unknown
Apparent Declination
Unknown
Sunlit
N/A
Visualization observer readout
Local Sidereal Time
14:12:37
Azimuth
Unknown
Elevation
Unknown
Doppler factor
Unknown
Orbital elements
Apogee altitude
419.809 km
Perigee altitude
335.567 km
Semi-major axis
6,755.825 km
Eccentricity
0.00623
Inclination
97.5215°
RAAN
142.3671°
Arg. of periapsis
139.2804°
True anomaly
220.84498°
Mean anomaly
221.3139°
Eccentric anomaly
221.07917°
Mean motion
3.90864 °/min
Orbital period
92.1 mins
BSTAR
0.0016856
Loading maneuver chart data...
Computing Atmospheric mass density...
Loading historical data...
Loading historical data...
Loading historical data...
Loading historical data...
Loading historical data...
Loading historical data...
Loading historical data...
Other satellites on launch #73 in the year 2017 (2017-11-18 UTC)

Documentation

Showing up to 5 results
|